Regional Weather Roundup
Issued by NWS

Home | Current Version | Previous Version | Text Only | Print | Product List | Glossary On
Versions: 1 2 3 4 5 6 7 8 9 10 11 12 13 14 15 16 17 18 19 20 21 22 23 24 25 26 27 28 29 30 31 32 33 34 35 36 37 38 39 40 41 42 43 44 45 46 47 48 49 50
000
ASUS43 KLSX 051657
RWRMO

WEATHER SUMMARY FOR MISSOURI
NATIONAL WEATHER SERVICE SPRINGFIELD MO
1100 AM CST FRI FEB 05 2016

NOTE: "FAIR" INDICATES FEW OR NO CLOUDS BELOW 12,000 FEET WITH NO
       SIGNIFICANT WEATHER AND/OR OBSTRUCTIONS TO VISIBILITY.
       CURRENT SKY AND/OR WEATHER CONDITIONS ARE NOT AVAILABLE FOR
       CHILLICOTHE AND FARMINGTON.

MOZ001>031-035>038-043-044-053-054-051800-
...NORTHERN AND WESTERN MISSOURI...

CITY           SKY/WX    TMP DP  RH WIND       PRES   REMARKS
KANSAS CTY INT CLOUDY    31  22  69 S8        30.42R WCI  23
LEE`S SUMMIT   CLOUDY    31  20  63 SE9       30.42F WCI  23
ST JOSEPH      MOSUNNY   30  23  75 S10       30.43S WCI  21
CHILLICOTHE      N/A     31  21  66 VRB5      30.45R WCI  26

$$
MOZ066>068-077>081-088>096-101>105-051800-
...SOUTHWEST MISSOURI...

CITY           SKY/WX    TMP DP  RH WIND       PRES   REMARKS
SPRINGFIELD    PTSUNNY   46  19  34 W13       30.40S
JOPLIN         MOSUNNY   46  20  35 W10       30.42S

$$
MOZ032>034-039>042-045>050-055>058-069>072-051800-
...CENTRAL MISSOURI...

CITY           SKY/WX    TMP DP  RH WIND       PRES   REMARKS
COLUMBIA       NOT AVBL
JEFFERSON CITY MOSUNNY   32  22  66 CALM      30.45F
ROLLA          SUNNY     35  21  56 CALM      30.40S
SEDALIA        PTSUNNY   32  21  64 SE6       30.45S WCI  26

$$
MOZ051-052-059>065-051800-
...EAST CENTRAL MISSOURI...

CITY           SKY/WX    TMP DP  RH WIND       PRES   REMARKS
ST LOUIS INTL  PTSUNNY   36  22  56 W6        30.45S

$$
MOZ072>076-082>087-097>100-106>115-051800-
...SOUTH CENTRAL AND SOUTHEAST MISSOURI...

CITY           SKY/WX    TMP DP  RH WIND       PRES   REMARKS
CAPE GIRARDEAU NOT AVBL
POPLAR BLUFF   CLOUDY    40  23  50 CALM      30.45S
WEST PLAINS    SUNNY     45  15  30 W10       30.42S

$$


USA.gov is the U.S. government's official web portal to all federal, state and local government web resources and services.